Theta_e
322 322 323 324 324 324 323 323 323 323 323 323 321 321 321 321 321 321 322 327 329 331 332 333 334 333 334 338 338 338 343 344 345 352 352 353 352 352 352 351 349 348 348
322 323 323 321 319 320 320 320 319 320 319 318 318 318 318 318 318 319 320 320 325 326 327 329 330 331 332 332 336 338 338 338 345 349 352 352 352 352 352 353 351 350 348
316 317 316 315 316 317 316 316 316 315 314 314 313 313 314 314 315 316 317 318 319 323 325 327 328 328 331 332 332 334 336 337 340 343 350 350 351 351 351 352 352 351 349
316 315 313 313 313 313 312 311 311 309 309 309 308 309 311 313 313 313 314 315 316 317 320 323 325 327 328 330 331 332 333 336 338 339 345 350 351 351 351 351 352 351 349
314 312 311 311 311 310 309 308 307 307 306 306 306 307 308 308 310 310 312 313 315 316 316 319 321 322 323 325 328 329 331 335 337 338 340 347 351 351 351 350 351 350 349
311 310 309 308 308 307 305 305 304 306 305 304 304 304 306 307 309 309 309 310 312 313 313 314 314 315 319 322 325 328 331 332 332 336 339 340 349 350 350 350 349 349 349
308 307 307 307 306 305 304 304 304 303 303 305 303 303 305 308 308 307 309 309 310 311 312 313 313 314 314 317 319 321 324 328 331 335 338 339 343 349 350 350 349 348 348
307 307 305 305 305 303 303 303 303 303 303 305 301 300 299 302 306 307 308 309 310 310 310 310 311 312 312 313 314 319 322 326 331 334 338 339 340 347 348 348 348 348 348
305 305 305 304 304 303 301 302 303 304 301 304 305 301 297 296 299 305 306 307 308 307 308 310 310 312 313 312 313 314 317 322 329 334 337 341 342 343 347 347 347 347 346
304 305 304 304 303 303 303 303 304 303 303 300 302 303 303 302 296 296 302 304 307 307 308 308 309 310 311 311 314 315 316 320 325 331 335 338 341 345 346 345 346 346 346
303 303 304 304 303 304 304 304 304 303 303 302 301 301 301 301 301 298 295 300 304 306 307 307 307 309 310 310 310 312 315 320 321 327 333 336 342 344 346 345 345 344 344
301 303 303 303 303 304 304 304 304 303 302 302 302 302 300 299 298 298 297 298 298 302 305 306 306 308 310 310 311 315 316 318 321 322 329 331 338 343 345 346 345 345 343
299 301 304 304 303 304 303 303 303 302 302 301 301 301 302 301 302 300 299 298 297 300 302 304 306 306 308 310 311 314 318 320 321 323 326 327 331 336 341 341 342 342 342
299 304 304 304 303 304 304 304 303 303 303 302 302 302 302 302 302 301 300 298 295 297 300 301 305 305 309 309 312 315 315 318 320 324 323 324 327 329 331 331 336 335 337
301 304 303 303 304 304 305 305 304 303 304 303 303 303 303 303 303 303 302 301 298 293 295 301 301 308 308 309 312 313 314 322 324 324 320 322 323 325 327 328 329 330 330
302 303 303 303 304 304 304 305 304 305 305 306 306 305 305 305 305 304 303 302 302 298 295 300 302 304 306 308 311 314 318 321 323 322 321 322 322 323 323 323 324 324 325
302 303 303 302 303 303 304 303 303 305 304 305 306 305 305 306 306 305 304 303 302 301 297 300 304 305 306 307 310 314 318 318 319 321 321 319 318 317 318 318 320 322 324
301 301 303 302 302 302 302 301 301 304 304 303 304 304 305 306 307 306 304 303 303 303 301 299 302 304 306 308 311 314 314 316 315 317 317 316 316 315 315 315 315 315 315
298 298 301 302 302 302 302 301 301 303 304 304 303 303 303 306 307 307 305 303 304 305 304 302 302 306 308 310 312 313 312 313 315 315 315 315 315 315 314 314 312 312 310
296 296 299 302 303 302 301 301 301 302 304 304 304 304 303 305 306 307 307 305 305 304 304 304 305 306 310 311 312 309 308 310 310 312 312 312 313 314 314 314 314 313 309
295 296 299 300 300 301 300 300 301 302 303 304 303 303 303 306 308 308 307 306 306 304 304 304 304 306 310 310 310 309 307 308 309 311 309 309 311 311 312 313 314 312 309
293 296 297 296 296 297 298 299 300 301 303 302 302 302 302 303 303 305 306 308 308 305 303 303 303 302 304 306 310 309 307 306 304 309 308 308 311 308 310 311 309 308 307
293 294 295 294 294 295 297 297 299 300 303 302 302 301 300 301 301 300 304 305 306 306 307 305 302 303 302 304 306 307 306 305 304 307 309 306 311 308 310 309 307 306 305
292 292 293 293 294 295 296 296 298 299 302 302 302 301 300 300 300 299 302 302 303 305 305 305 304 304 304 305 307 308 307 306 307 308 309 304 307 307 309 308 306 305 304
291 292 293 293 293 294 295 296 297 298 300 300 301 300 299 297 297 297 300 299 300 302 305 304 303 301 301 301 303 307 305 304 302 304 307 306 306 305 306 307 309 305 303
292 292 293 293 294 293 294 295 296 297 297 298 298 298 298 296 296 295 297 297 296 298 301 302 303 304 303 304 303 304 303 304 304 302 304 306 305 305 301 303 305 309 309
Wind_Speed
3 3 3 3 3 3 3 5 5 5 6 7 8 8 10 9 9 6 6 18 21 22 23 24 26 27 25 21 20 20 18 17 16 24 28 28 28 27 28 27 26 25 24
4 4 4 4 4 5 5 5 6 6 6 7 9 9 10 10 10 10 7 9 21 23 24 23 22 22 24 24 22 20 21 20 19 19 27 28 28 27 28 28 27 27 26
5 5 4 4 4 5 6 6 6 5 6 7 9 9 10 12 11 12 11 10 12 20 23 22 20 23 21 23 23 23 22 21 18 18 21 27 29 28 28 28 28 28 27
8 6 5 5 6 5 5 6 6 7 7 7 8 8 8 10 13 14 12 11 9 9 11 19 19 20 18 16 18 20 21 21 20 20 17 23 27 28 28 28 28 29 28
8 5 4 4 6 5 5 6 6 5 7 8 10 10 10 11 13 12 13 12 11 10 7 12 16 18 18 20 21 21 21 18 18 19 19 20 24 27 27 29 29 29 28
8 5 4 5 5 4 5 6 6 6 7 8 11 11 9 10 10 10 10 9 9 9 9 9 8 8 16 18 19 20 20 20 19 18 18 20 21 25 27 28 28 28 28
7 5 4 5 4 5 6 7 6 8 7 7 9 9 8 10 9 6 5 6 9 8 9 8 6 7 7 17 18 21 21 22 21 21 20 19 19 24 26 28 28 27 27
7 7 5 5 6 5 7 7 7 8 7 6 7 10 7 6 1 7 10 8 10 7 9 12 11 10 9 8 13 22 23 23 22 22 20 19 20 24 26 26 27 27 26
6 6 6 6 6 5 6 7 8 9 9 7 7 4 5 4 9 5 4 10 9 8 10 9 10 12 11 10 13 15 20 20 22 23 22 21 21 22 25 25 26 25 25
6 6 7 7 7 6 7 7 9 8 9 9 7 6 9 10 6 6 2 10 11 11 7 8 11 12 11 10 15 19 22 22 22 23 23 23 25 23 25 22 22 21 23
8 9 8 9 8 7 8 9 10 9 8 8 7 7 8 8 10 7 10 10 9 7 7 9 10 10 12 11 10 13 19 21 23 24 22 21 23 24 24 25 23 25 25
7 9 9 7 8 9 9 9 10 10 10 9 8 8 7 6 7 7 7 10 13 9 7 9 9 10 10 9 13 19 21 21 22 24 20 16 18 21 23 24 26 28 23
5 9 10 10 9 10 10 10 10 11 10 9 10 8 8 8 8 9 9 9 8 9 7 9 8 8 8 8 9 18 22 23 22 23 18 13 11 3 16 18 16 14 16
6 8 9 9 10 11 10 10 8 8 10 9 12 10 9 9 8 8 7 7 9 7 8 11 5 8 6 6 13 22 12 23 24 17 13 9 9 6 3 5 9 10 11
6 8 8 9 10 11 10 10 7 9 9 9 10 10 9 8 7 7 7 7 6 6 7 6 5 5 7 9 13 12 12 16 17 11 9 2 1 0 4 7 8 10 11
7 8 8 9 9 10 11 11 9 9 10 8 7 10 9 7 8 6 6 5 6 6 6 5 7 10 10 9 12 13 11 10 10 1 4 6 7 7 5 1 5 9 11
7 8 8 9 8 10 11 10 10 11 11 11 11 10 10 10 7 5 4 5 5 6 7 10 6 9 11 10 9 9 5 4 6 11 12 14 14 12 12 11 8 2 7
7 7 7 7 8 8 9 10 10 11 11 12 13 12 11 9 9 6 4 5 6 6 6 11 12 9 9 7 8 5 4 5 6 16 17 17 16 14 14 14 13 13 11
8 7 7 7 8 8 9 10 9 10 10 10 11 12 13 13 10 9 4 4 6 5 7 8 11 7 5 2 0 3 5 6 5 12 14 17 16 15 15 15 15 14 14
7 7 7 7 7 8 7 10 10 10 10 10 11 11 11 13 13 11 8 6 5 6 7 7 8 8 3 2 0 1 1 4 5 6 12 13 13 16 15 14 15 15 15
7 6 6 7 7 7 6 11 10 9 9 10 10 10 10 16 22 17 9 9 8 6 6 7 7 6 3 1 1 1 2 2 5 4 4 5 5 6 7 11 15 15 14
7 5 6 7 8 7 15 19 13 8 8 7 9 10 10 15 16 19 16 14 11 9 9 7 6 6 7 5 4 1 2 1 2 2 2 4 3 6 5 6 11 13 13
5 6 7 7 8 8 17 18 19 6 6 6 8 9 10 10 15 13 14 12 10 12 11 6 8 8 6 6 5 2 1 2 2 2 3 2 2 5 5 5 10 11 12
5 5 6 7 7 8 17 18 18 7 6 6 7 8 9 11 14 15 10 10 9 8 8 6 6 7 8 9 6 3 1 3 3 2 1 2 1 2 4 4 8 10 11
4 4 4 7 7 8 16 17 14 9 8 6 6 7 10 10 18 19 10 10 9 9 10 12 9 10 12 15 13 4 3 0 2 1 3 3 2 2 3 2 3 7 9
3 5 7 6 9 8 11 16 14 6 9 7 7 7 12 13 15 17 10 10 9 9 10 10 9 8 7 8 13 9 6 2 2 2 3 2 2 2 3 2 2 3 4
Wind_Direction
324 320 335 350 360 354 357 342 334 326 322 325 320 312 308 304 297 290 282 287 288 287 286 284 285 286 282 279 272 276 274 275 269 234 227 221 221 216 214 215 214 211 211
35 31 23 13 4 355 344 338 334 332 328 324 320 318 312 305 297 291 282 280 281 283 284 284 283 282 282 280 277 274 264 266 267 257 229 223 221 220 220 215 213 214 210
33 22 13 8 356 352 356 354 349 341 330 327 316 312 306 298 293 288 283 277 281 279 281 280 284 285 284 277 279 278 279 274 274 279 239 226 223 218 221 219 214 213 214
30 24 16 6 352 0 2 357 349 334 324 319 308 300 287 282 284 281 278 277 277 282 285 286 283 280 284 290 287 285 273 269 264 257 264 229 221 218 218 219 217 213 213
35 30 16 357 353 351 352 342 329 313 314 311 307 304 295 287 282 283 283 285 287 291 286 291 289 290 290 287 285 282 277 280 272 263 256 252 223 219 216 217 218 216 212
15 6 355 355 351 346 334 325 310 312 305 304 308 298 285 274 278 276 287 295 295 290 290 285 285 289 294 291 286 285 287 282 281 284 274 252 231 221 219 218 219 219 217
360 353 346 341 340 335 322 315 310 316 311 297 308 307 295 287 276 293 287 295 296 298 296 300 293 295 296 295 298 294 288 283 280 286 271 259 246 226 217 218 218 219 218
347 349 334 330 321 317 316 313 306 310 310 308 305 300 321 308 74 316 316 306 296 317 308 298 294 291 293 288 288 291 290 282 279 289 273 260 249 233 224 220 218 217 214
333 327 326 317 315 311 307 303 301 304 308 305 297 287 310 289 325 272 283 290 288 305 295 295 295 290 285 288 282 290 288 283 283 285 282 261 253 242 225 217 216 221 217
319 331 331 329 318 307 304 308 311 298 299 295 295 266 266 281 300 305 275 286 290 284 296 302 297 288 283 281 279 286 290 288 284 290 286 271 258 242 228 220 217 214 218
344 343 334 328 318 308 310 307 310 308 297 289 285 288 280 277 271 270 289 292 291 289 287 290 280 283 284 271 279 280 285 287 290 288 287 281 255 236 224 209 205 210 211
337 327 323 318 314 315 317 313 307 301 297 291 286 282 275 278 283 279 284 286 294 303 296 283 276 273 277 274 280 292 295 291 291 292 287 278 269 233 222 201 196 207 211
318 318 327 328 320 319 309 301 300 296 293 288 287 283 275 269 268 270 274 279 280 297 289 283 271 269 274 280 281 297 299 297 295 284 272 257 294 256 205 209 212 203 208
304 310 320 318 317 312 311 309 303 295 292 288 287 281 278 273 267 264 260 277 288 285 289 285 290 281 281 288 297 309 303 299 286 275 262 261 256 255 224 212 200 193 198
314 314 318 324 324 319 320 319 307 302 302 300 292 286 278 274 267 262 255 252 263 290 299 297 303 280 302 303 301 304 292 278 293 256 266 348 41 87 216 198 195 209 213
301 307 320 327 325 324 329 325 323 322 322 317 308 307 300 289 277 260 254 250 244 259 277 288 284 290 295 295 301 293 288 318 303 194 119 94 79 77 75 144 236 249 250
305 317 315 317 324 332 330 330 337 333 332 329 329 325 315 314 306 267 249 246 255 250 263 287 277 295 291 293 299 299 323 359 33 71 80 78 76 75 72 71 71 39 260
318 314 311 310 321 333 330 334 331 330 334 338 337 335 333 321 315 283 248 247 253 260 265 280 292 299 301 297 308 347 19 37 51 55 61 61 61 61 62 60 56 48 46
320 323 326 316 318 323 331 333 327 321 327 331 335 341 337 341 344 342 262 258 268 265 262 266 284 290 286 241 165 22 21 36 41 58 61 64 63 60 61 59 54 51 57
321 332 325 315 314 317 328 338 332 326 327 333 336 339 342 348 351 352 358 321 283 279 285 286 286 294 293 320 333 107 117 39 50 43 57 57 59 60 57 64 70 66 56
340 332 334 337 333 328 338 342 335 326 323 336 341 344 346 356 359 354 3 5 360 347 327 331 339 329 348 308 54 90 69 67 44 35 36 44 49 58 49 58 75 75 76
355 352 354 344 336 340 338 347 348 325 326 342 344 345 349 355 350 347 346 353 2 9 4 354 352 355 349 339 329 66 119 119 103 0 37 52 37 61 56 62 74 75 75
340 345 342 340 342 336 347 347 348 329 337 347 344 351 354 354 356 343 342 349 352 353 7 349 1 1 337 335 314 334 123 172 119 143 122 87 62 81 76 70 75 80 84
338 330 329 341 340 343 348 348 350 340 351 338 346 357 357 354 354 348 345 353 352 2 357 3 4 352 360 344 348 331 317 102 84 89 135 102 54 85 96 86 75 86 93
338 337 325 340 343 342 346 350 353 350 343 348 354 351 6 354 349 350 1 357 351 357 351 352 354 5 4 4 7 354 16 223 107 46 17 107 141 85 77 77 94 94 95
331 347 348 343 339 339 342 353 358 343 350 346 349 355 3 358 349 355 358 357 351 345 342 346 353 1 358 11 8 14 353 19 80 103 355 94 120 128 97 28 40 111 111